Location: Hannover
(52.3723°N, 9.7339°E)
Time: 10:56:52
(UTC+01:00)

ISS - Pass Details

Date: 08 January 2018
Orbit: 402 x 407 km, 51.6° (Epoch: 18 January)

Event Time Altitude Azimuth Distance (km) Brightness Sun altitude
Exits shadow 06:38:52 37° 261° (W) 656 -3.3 -15.8°
Maximum altitude 06:39:58 64° 194° (SSW) 455 -3.7 -15.6°
Drops below altitude 10° 06:43:14 10° 112° (ESE) 1,468 0.4 -15.2°
Sets 06:45:20 0° 109° (ESE) 2,328 2.0 -14.9°
